Weather History for Grand Forks, ND

Change the Weather History Date:

Monday, February 18, 2013

  Actual Average Record
Temperature  
Mean Temperature 10 °F 13 °F  
Max Temperature 26 °F 23 °F 45 °F (2002)
Min Temperature -6 °F 3 °F -35 °F (1967)
Degree Days  
Heating Degree Days 55 52  
Month to date heating degree days 948 985  
Since 1 July heating degree days 6440 6651  
Cooling Degree Days 0 0  
Month to date cooling degree days 0 0  
Year to date cooling degree days 0 0  
Moisture  
Dew Point 5 °F    
Average Humidity 84    
Maximum Humidity 92    
Minimum Humidity 75    
Precipitation  
Precipitation 0.08 in 0.02 in 0.09 in (1986)
Month to date precipitation 0.37 0.28  
Year to date precipitation 0.79 0.83  
Snow  
Snow 2.50 in 0.20 in - ()
Month to date snowfall 10.7 3.9  
Since 1 July snowfall 29.8 34.5  
Snow Depth 7.00 in    
Sea Level Pressure  
Sea Level Pressure 29.82 in    
Wind  
Wind Speed 31 mph (NNW)    
Max Wind Speed 43 mph    
Max Gust Speed 51 mph    
Visibility 1 miles    
Events Fog , Snow    
T = Trace of Precipitation, MM = Missing Value Source: NWS Daily Summary

Daily Weather History Graph

Daily Weather History Graph

Search for Another Location

Airport:

Trip Planner

Search our weather history database for the weather conditions in past years. The results will help you decide how hot, cold, wet, or windy it might be!

Date:

Astronomy

Feb. 18, 2013 Rise Set
Actual Time 7:29 AM CST 5:56 PM CST
Civil Twilight 6:57 AM CST 6:28 PM CST
Nautical Twilight 6:21 AM CST 7:04 PM CST
Astronomical Twilight 5:45 AM CST 7:40 PM CST
Moon 11:30 AM CST (2/18) 2:22 AM CST (2/18)
Length of Visible Light 11h 30m
Length of Day
10h 27m
First Quarter, 58% of the Moon is Illuminated
Feb 18
First Quarter
Feb 25
Full
Mar 4
Last Quarter
Mar 11
New
Mar 19
First Quarter

Hourly Weather History & Observations

Time (CST) Temp. Windchill Dew Point Humidity Pressure Visibility Wind Dir Wind Speed Gust Speed Precip Events Conditions
12:00 AM 26.6 °F 14.3 °F 23.0 °F 86% 29.47 in 3.0 mi NNW 16.1 mph 23.0 mph 0.00 in Snow Light Snow
12:13 AM 24.8 °F 11.5 °F 23.0 °F 93% 29.47 in 3.0 mi NNW 17.3 mph - 0.00 in Snow Light Snow
12:53 AM 25.0 °F 12.6 °F 23.0 °F 92% 29.51 in 4.0 mi NNW 15.0 mph - 0.00 in Snow Light Snow
1:29 AM 24.8 °F 10.0 °F 21.2 °F 86% 29.47 in 2.5 mi NNW 21.9 mph - 0.00 in Snow Light Snow
1:53 AM 24.1 °F 9.8 °F 21.9 °F 91% 29.52 in 1.8 mi NNW 19.6 mph - 0.00 in Snow Light Snow
2:32 AM 24.8 °F 11.1 °F 21.2 °F 86% 29.49 in 1.2 mi NNW 18.4 mph - 0.01 in Snow Light Snow
2:48 AM 24.8 °F 9.6 °F 21.2 °F 86% 29.49 in 0.8 mi NNW 23.0 mph 28.8 mph 0.01 in Snow Light Snow
2:53 AM 24.1 °F 8.7 °F 21.9 °F 91% 29.54 in 1.0 mi NNW 23.0 mph - 0.01 in Snow Light Snow
3:05 AM 24.8 °F 8.4 °F 21.2 °F 86% 29.50 in 0.8 mi NNW 27.6 mph 32.2 mph 0.01 in Snow Light Snow
3:53 AM 21.2 °F 3.3 °F 17.6 °F 86% 29.52 in 0.8 mi NNW 28.8 mph 46.0 mph N/A Snow Light Snow
4:08 AM 19.4 °F -0.6 °F 17.6 °F 93% 29.53 in 0.5 mi NNW 34.5 mph 44.9 mph 0.00 in Fog Light Freezing Fog
4:53 AM 18.0 °F -2.6 °F 15.1 °F 88% 29.61 in 0.5 mi NNW 34.5 mph 48.3 mph 0.00 in Fog Light Freezing Fog
5:09 AM 17.6 °F -4.7 °F 14.0 °F 86% 29.57 in 0.2 mi NNW 42.6 mph 50.6 mph N/A Fog Light Freezing Fog
5:24 AM 15.8 °F -6.3 °F 12.2 °F 86% 29.59 in 0.5 mi NNW 38.0 mph 48.3 mph N/A Fog Light Freezing Fog
5:53 AM 12.9 °F -10.3 °F 10.0 °F 88% 29.67 in 0.5 mi NNW 38.0 mph 46.0 mph N/A Snow Blowing Snow
6:08 AM 12.2 °F -11.0 °F 8.6 °F 85% 29.63 in 0.2 mi NNW 36.8 mph 47.2 mph N/A Snow Blowing Snow
6:53 AM 10.0 °F -13.4 °F 7.0 °F 87% 29.73 in 0.2 mi NNW 34.5 mph 43.7 mph 0.01 in Snow Blowing Snow
7:53 AM 8.1 °F -15.9 °F 5.0 °F 87% 29.76 in 0.1 mi NNW 33.4 mph 44.9 mph 0.01 in Snow Snow
8:53 AM 7.0 °F -18.3 °F 3.9 °F 87% 29.79 in 0.1 mi NNW 36.8 mph 43.7 mph 0.01 in Snow Snow
9:53 AM 7.0 °F -17.7 °F 3.0 °F 84% 29.83 in 0.1 mi North 34.5 mph 42.6 mph 0.01 in Snow Snow
10:53 AM 5.0 °F -20.7 °F -0.0 °F 80% 29.87 in 0.1 mi NNW 35.7 mph 47.2 mph 0.00 in Snow Blowing Snow
11:53 AM 3.0 °F -23.4 °F -2.0 °F 80% 29.93 in 0.1 mi NNW 35.7 mph 44.9 mph 0.01 in Snow Blowing Snow
12:53 PM 3.0 °F -23.4 °F -2.0 °F 80% 29.94 in 0.2 mi North 35.7 mph 43.7 mph N/A Snow Blowing Snow
1:53 PM 1.9 °F -24.9 °F -4.0 °F 76% 29.97 in 0.2 mi NNW 35.7 mph 41.4 mph N/A Snow Blowing Snow
2:00 PM 1.4 °F -24.3 °F -4.0 °F 78% 29.91 in 0.2 mi NNW 31.1 mph 43.7 mph N/A Snow Blowing Snow
2:53 PM 1.0 °F -24.8 °F -5.1 °F 75% 30.00 in 0.5 mi NNW 31.1 mph 40.3 mph N/A Snow Blowing Snow
3:53 PM -0.0 °F -26.6 °F -5.1 °F 79% 30.02 in 0.8 mi NNW 32.2 mph 42.6 mph N/A Snow Blowing Snow
4:53 PM -0.0 °F -25.5 °F -6.0 °F 76% 30.05 in 0.8 mi NNW 28.8 mph 38.0 mph N/A Snow Light Snow
5:53 PM -0.9 °F -27.1 °F -6.0 °F 79% 30.09 in 0.8 mi NNW 29.9 mph 40.3 mph N/A Snow Blowing Snow
6:53 PM -0.4 °F -26.0 °F -5.8 °F 78% 30.05 in 0.8 mi NNW 28.8 mph 39.1 mph N/A Snow Blowing Snow
7:04 PM -0.4 °F -25.6 °F -5.8 °F 78% 30.05 in 1.0 mi NNW 27.6 mph 34.5 mph N/A Snow Blowing Snow
7:53 PM -0.9 °F -27.1 °F -6.0 °F 79% 30.14 in 1.0 mi NNW 29.9 mph 35.7 mph N/A Snow Blowing Snow
8:53 PM -0.9 °F -27.1 °F -6.0 °F 79% 30.15 in 1.0 mi NNW 29.9 mph 36.8 mph N/A Snow Blowing Snow
9:53 PM -2.0 °F -28.2 °F -7.1 °F 79% 30.17 in 1.0 mi NNW 28.8 mph 38.0 mph N/A Snow Blowing Snow
10:17 PM -2.2 °F -28.4 °F -7.6 °F 78% 30.10 in 1.0 mi NNW 28.8 mph 38.0 mph N/A Snow Blowing Snow
10:53 PM -4.0 °F -30.4 °F -9.0 °F 79% 30.20 in 1.0 mi NNW 27.6 mph 35.7 mph N/A Snow Blowing Snow
11:26 PM -5.8 °F -34.1 °F -9.4 °F 84% 30.13 in 2.0 mi NNW 31.1 mph 39.1 mph N/A Snow Blowing Snow
11:32 PM -5.8 °F -32.4 °F -11.2 °F 77% 30.14 in 4.0 mi NNW 26.5 mph 39.1 mph N/A   Haze
11:53 PM -6.0 °F -33.1 °F -11.9 °F 75% 30.22 in 5.0 mi NNW 27.6 mph 38.0 mph N/A   Haze